When you browse on this site, cookies collect data to enhance your experience and personalize the content and advertising you see.
Visit our Privacy Policy to learn more. By continuing to use the site, you agree to this use of cookies and data.
  • In Sweden
  • List of Countries
  • For 7 days
  • Water Temperature
  • Weather Map
  • Weather Widgets
  • user-avatar
    Login

    Hourly Weather Agarn

    Today, 5 June, Friday

    Time Temperature Precipitation Wind Pressure Humidity
    00:00 +5°C° 0.1 mm 2 mps 632 mmHg 94%
    01:00 +5°C° 0.1 mm 2 mps 632 mmHg 94%
    02:00 +5°C° 0.1 mm 2 mps 632 mmHg 95%
    03:00 +5°C° 0.1 mm 2 mps 632 mmHg 95%
    04:00 +5°C° 0.1 mm 2 mps 632 mmHg 96%
    05:00 +5°C° 0.5 mm 2 mps 632 mmHg 96%
    06:00 +6°C° 0.5 mm 2 mps 632 mmHg 96%
    07:00 +6°C° 0.5 mm 2 mps 633 mmHg 96%
    08:00 +7°C° 0.2 mm 2 mps 633 mmHg 94%
    09:00 +7°C° 0.2 mm 2 mps 633 mmHg 92%
    10:00 +8°C° 0.2 mm 2 mps 634 mmHg 91%
    11:00 +9°C° 0.1 mm 2 mps 634 mmHg 88%
    12:00 +9°C° 0.1 mm 2 mps 634 mmHg 85%
    13:00 +10°C° 0.1 mm 2 mps 635 mmHg 82%
    14:00 +10°C° 0.2 mm 3 mps 635 mmHg 82%
    15:00 +10°C° 0.2 mm 3 mps 635 mmHg 83%
    16:00 +10°C° 0.2 mm 3 mps 636 mmHg 83%
    17:00 +9°C° 0.3 mm 3 mps 636 mmHg 87%
    18:00 +9°C° 0.3 mm 3 mps 635 mmHg 91%
    19:00 +8°C° 0.3 mm 3 mps 635 mmHg 95%
    20:00 +8°C° 0.3 mm 2 mps 636 mmHg 95%
    21:00 +7°C° 0.3 mm 2 mps 636 mmHg 96%
    22:00 +7°C° 0.3 mm 2 mps 637 mmHg 96%
    23:00 +7°C° 0.1 mm 2 mps 637 mmHg 95%

    Tomorrow, 6 June, Saturday

    Time Temperature Precipitation Wind Pressure Humidity
    00:00 +7°C° 0.1 mm 2 mps 637 mmHg 95%
    01:00 +7°C° 0.1 mm 2 mps 637 mmHg 94%
    02:00 +6°C° 0 mm 2 mps 637 mmHg 93%
    03:00 +6°C° 0 mm 2 mps 636 mmHg 92%
    04:00 +6°C° 0 mm 2 mps 636 mmHg 91%
    05:00 +8°C° 0 mm 1 mps 637 mmHg 90%
    06:00 +9°C° 0 mm 1 mps 637 mmHg 89%
    07:00 +10°C° 0 mm 1 mps 638 mmHg 88%
    08:00 +11°C° 0.1 mm 1 mps 638 mmHg 85%
    09:00 +12°C° 0.1 mm 2 mps 639 mmHg 82%
    10:00 +13°C° 0.1 mm 2 mps 639 mmHg 79%
    11:00 +14°C° 0.4 mm 2 mps 639 mmHg 76%
    12:00 +15°C° 0.4 mm 2 mps 639 mmHg 73%
    13:00 +16°C° 0.4 mm 2 mps 639 mmHg 70%
    14:00 +16°C° 0.5 mm 2 mps 639 mmHg 70%
    15:00 +16°C° 0.5 mm 2 mps 639 mmHg 70%
    16:00 +16°C° 0.5 mm 2 mps 639 mmHg 70%
    17:00 +15°C° 0.6 mm 2 mps 639 mmHg 77%
    18:00 +14°C° 0.6 mm 1 mps 639 mmHg 84%
    19:00 +13°C° 0.6 mm 1 mps 638 mmHg 90%
    20:00 +12°C° 0.5 mm 1 mps 638 mmHg 92%
    21:00 +11°C° 0.5 mm 1 mps 638 mmHg 94%
    22:00 +10°C° 0.5 mm 1 mps 638 mmHg 97%
    23:00 +10°C° 0.1 mm 1 mps 638 mmHg 95%

    Day after tomorrow, 7 June, Sunday

    Time Temperature Precipitation Wind Pressure Humidity
    00:00 +9°C° 0.1 mm 1 mps 638 mmHg 94%
    01:00 +9°C° 0.1 mm 1 mps 638 mmHg 93%
    02:00 +9°C° 0.2 mm 1 mps 638 mmHg 93%
    03:00 +9°C° 0.2 mm 1 mps 638 mmHg 93%
    04:00 +9°C° 0.2 mm 1 mps 638 mmHg 94%
    05:00 +9°C° 0.4 mm 1 mps 638 mmHg 94%
    06:00 +10°C° 0.4 mm 1 mps 638 mmHg 94%
    07:00 +10°C° 0.4 mm 1 mps 639 mmHg 94%
    08:00 +11°C° 0.3 mm 1 mps 639 mmHg 92%
    09:00 +11°C° 0.3 mm 1 mps 639 mmHg 91%
    10:00 +12°C° 0.3 mm 1 mps 640 mmHg 89%
    11:00 +12°C° 0.4 mm 2 mps 640 mmHg 90%
    12:00 +12°C° 0.4 mm 2 mps 640 mmHg 90%
    13:00 +12°C° 0.4 mm 2 mps 640 mmHg 90%
    14:00 +12°C° 0.7 mm 2 mps 639 mmHg 91%
    15:00 +10°C° 0.7 mm 2 mps 639 mmHg 91%
    16:00 +10°C° 0.7 mm 2 mps 639 mmHg 91%
    17:00 +10°C° 0.7 mm 2 mps 639 mmHg 92%
    18:00 +9°C° 0.7 mm 2 mps 639 mmHg 93%
    19:00 +10°C° 0.7 mm 1 mps 639 mmHg 94%
    20:00 +10°C° 0 mm 1 mps 639 mmHg 95%
    21:00 +9°C° 0 mm 1 mps 639 mmHg 95%
    22:00 +9°C° 0 mm 1 mps 640 mmHg 96%
    23:00 +9°C° 0.1 mm 1 mps 639 mmHg 96%

    8 June, Monday

    Time Temperature Precipitation Wind Pressure Humidity
    00:00 +9°C° 0.1 mm 1 mps 639 mmHg 96%
    01:00 +8°C° 0.1 mm 1 mps 639 mmHg 96%
    02:00 +8°C° 0.1 mm 1 mps 639 mmHg 97%
    03:00 +8°C° 0.1 mm 1 mps 639 mmHg 97%
    04:00 +8°C° 0.1 mm 1 mps 639 mmHg 97%
    05:00 +8°C° 0.3 mm 1 mps 639 mmHg 97%
    06:00 +8°C° 0.3 mm 1 mps 639 mmHg 97%
    07:00 +8°C° 0.3 mm 1 mps 639 mmHg 96%
    08:00 +8°C° 0.5 mm 1 mps 639 mmHg 96%
    09:00 +8°C° 0.5 mm 1 mps 639 mmHg 96%
    10:00 +8°C° 0.5 mm 1 mps 639 mmHg 96%
    11:00 +9°C° 0.2 mm 1 mps 639 mmHg 94%
    12:00 +9°C° 0.2 mm 1 mps 640 mmHg 93%
    13:00 +9°C° 0.2 mm 2 mps 640 mmHg 91%
    14:00 +10°C° 0.5 mm 1 mps 640 mmHg 89%
    15:00 +10°C° 0.5 mm 1 mps 640 mmHg 87%
    16:00 +11°C° 0.5 mm 1 mps 639 mmHg 86%
    17:00 +10°C° 0.5 mm 1 mps 640 mmHg 87%
    18:00 +10°C° 0.5 mm 1 mps 640 mmHg 89%
    19:00 +10°C° 0.5 mm 1 mps 640 mmHg 91%
    20:00 +9°C° 0.1 mm 1 mps 640 mmHg 92%
    21:00 +8°C° 0.1 mm 1 mps 640 mmHg 94%
    22:00 +7°C° 0.1 mm 1 mps 640 mmHg 96%
    23:00 +7°C° 0 mm 1 mps 640 mmHg 96%

    9 June, Tuesday

    Time Temperature Precipitation Wind Pressure Humidity
    00:00 +7°C° 0 mm 1 mps 640 mmHg 96%
    01:00 +7°C° 0 mm 1 mps 640 mmHg 96%
    02:00 +7°C° 0 mm 1 mps 640 mmHg 96%
    03:00 +6°C° 0 mm 1 mps 640 mmHg 95%
    04:00 +6°C° 0 mm 1 mps 640 mmHg 95%
    05:00 +7°C° 0 mm 1 mps 641 mmHg 94%
    06:00 +8°C° 0 mm 1 mps 641 mmHg 92%
    07:00 +8°C° 0 mm 1 mps 641 mmHg 90%
    08:00 +9°C° 0.1 mm 1 mps 642 mmHg 87%
    09:00 +10°C° 0.1 mm 1 mps 642 mmHg 83%
    10:00 +11°C° 0.1 mm 1 mps 642 mmHg 80%
    11:00 +12°C° 0.4 mm 1 mps 642 mmHg 79%
    12:00 +12°C° 0.4 mm 2 mps 643 mmHg 78%
    13:00 +13°C° 0.4 mm 2 mps 643 mmHg 77%
    14:00 +13°C° 0.8 mm 2 mps 642 mmHg 80%
    15:00 +13°C° 0.8 mm 2 mps 642 mmHg 82%
    16:00 +12°C° 0.8 mm 2 mps 642 mmHg 84%
    17:00 +12°C° 0.6 mm 2 mps 642 mmHg 86%
    18:00 +10°C° 0.6 mm 2 mps 642 mmHg 88%
    19:00 +11°C° 0.6 mm 1 mps 643 mmHg 90%
    20:00 +10°C° 0.2 mm 1 mps 643 mmHg 92%
    21:00 +9°C° 0.2 mm 1 mps 643 mmHg 94%
    22:00 +9°C° 0.2 mm 1 mps 643 mmHg 96%
    23:00 +8°C° 0.1 mm 1 mps 643 mmHg 96%

    10 June, Wednesday

    Time Temperature Precipitation Wind Pressure Humidity
    00:00 +8°C° 0.1 mm 1 mps 643 mmHg 96%
    01:00 +8°C° 0.1 mm 1 mps 643 mmHg 96%
    02:00 +8°C° 0 mm 1 mps 643 mmHg 96%
    03:00 +8°C° 0 mm 1 mps 643 mmHg 96%
    04:00 +7°C° 0 mm 0 mps 643 mmHg 96%
    05:00 +7°C° 0.1 mm 0 mps 643 mmHg 94%
    06:00 +8°C° 0.1 mm 0 mps 643 mmHg 93%
    07:00 +9°C° 0.1 mm 1 mps 644 mmHg 92%
    08:00 +10°C° 0.2 mm 1 mps 644 mmHg 89%
    09:00 +11°C° 0.2 mm 1 mps 644 mmHg 87%
    10:00 +12°C° 0.2 mm 1 mps 645 mmHg 85%
    11:00 +12°C° 0.6 mm 1 mps 645 mmHg 84%
    12:00 +13°C° 0.6 mm 1 mps 645 mmHg 83%
    13:00 +14°C° 0.6 mm 1 mps 645 mmHg 82%
    14:00 +13°C° 1.2 mm 1 mps 645 mmHg 83%
    15:00 +13°C° 1.2 mm 1 mps 645 mmHg 84%
    16:00 +13°C° 1.2 mm 1 mps 644 mmHg 85%
    17:00 +13°C° 0.7 mm 1 mps 644 mmHg 87%
    18:00 +12°C° 0.7 mm 1 mps 644 mmHg 89%
    19:00 +11°C° 0.7 mm 1 mps 644 mmHg 91%
    20:00 +10°C° 0.1 mm 1 mps 644 mmHg 93%
    21:00 +9°C° 0.1 mm 1 mps 644 mmHg 94%
    22:00 +7°C° 0.1 mm 0 mps 644 mmHg 95%
    23:00 +7°C° 0 mm 0 mps 644 mmHg 94%
    Show more